OE3APM-13 Weather Reports


Display with metric or nautical units.
time (UTC)temp
F
wind
direction
speed
MPH
gust
MPH
rain 1hr
in
rain 24hr
in
rain mn
in
humidity
%
barometer
mb
20260509064809 53 146 5.0 8.0 0.00 0.00 0.00 76 1019.4
20260509064308 53 134 5.0 8.0 0.00 0.00 0.00 77 1019.3
20260509063818 52 161 4.0 8.0 0.00 0.00 0.00 78 1019.3
20260509063307 52 134 3.0 6.0 0.00 0.00 0.00 79 1019.4
20260509062805 51 98 3.0 7.0 0.00 0.00 0.00 80 1019.3
20260509062308 51 172 3.0 7.0 0.00 0.00 0.00 82 1019.2
20260509061806 50 130 4.0 9.0 0.00 0.00 0.00 83 1019.2
20260509061305 49 86 4.0 9.0 0.00 0.00 0.00 84 1019.2
20260509060804 49 69 3.0 7.0 0.00 0.00 0.00 85 1019.2
20260509060304 49 115 2.0 7.0 0.00 0.00 0.00 86 1019.2
20260509055803 48 89 2.0 9.0 0.00 0.00 0.00 87 1019.3
20260509055306 48 60 2.0 9.0 0.00 0.00 0.00 88 1019.3
20260509054803 47 98 1.0 3.0 0.00 0.00 0.00 91 1019.2
20260509054303 47 171 1.0 4.0 0.00 0.00 0.00 93 1019.3
20260509053804 47 171 0.0 4.0 0.00 0.00 0.00 94 1019.3
20260509053302 46 54 0.0 0.0 0.00 0.00 0.00 94 1019.3
20260509052802 46 54 0.0 1.0 0.00 0.00 0.00 94 1019.2
20260509052307 46 54 1.0 2.0 0.00 0.00 0.00 94 1019.1
20260509051758 46 54 1.0 2.0 0.00 0.00 0.00 94 1019.0
20260509051255 45 55 0.0 2.0 0.00 0.00 0.00 94 1019.0
20260509050745 45 55 0.0 0.0 0.00 0.00 0.00 94 1018.9
20260509050236 44 55 0.0 0.0 0.00 0.00 0.00 93 1018.9
20260509045733 44 55 0.0 0.0 0.00 0.00 0.00 93 1018.8
20260509045230 44 55 0.0 0.0 0.00 0.00 0.00 93 1018.8
20260509044728 43 55 0.0 0.0 0.00 0.00 0.00 93 1018.7
20260509044227 43 55 0.0 0.0 0.00 0.00 0.00 92 1018.7
20260509043723 43 55 0.0 0.0 0.00 0.00 0.00 92 1018.6
20260509043221 42 55 0.0 0.0 0.00 0.00 0.00 91 1018.5
20260509042720 42 55 0.0 0.0 0.00 0.00 0.00 91 1018.5
20260509042217 42 55 0.0 2.0 0.00 0.00 0.00 91 1018.4
20260509041715 42 55 0.0 2.0 0.00 0.00 0.00 91 1018.4
20260509041214 42 55 0.0 2.0 0.00 0.00 0.00 91 1018.4
20260509040713 42 55 0.0 2.0 0.00 0.00 0.00 90 1018.4
20260509040213 42 55 0.0 2.0 0.00 0.00 0.00 91 1018.4
20260509035714 42 55 0.0 0.0 0.00 0.00 0.00 91 1018.4
20260509035210 42 55 0.0 0.0 0.00 0.00 0.00 90 1018.4
20260509034709 42 55 0.0 0.0 0.00 0.00 0.00 90 1018.4
20260509034209 42 55 0.0 1.0 0.00 0.00 0.00 90 1018.2
20260509033707 42 55 1.0 2.0 0.00 0.00 0.00 89 1018.2
20260509033205 43 55 1.0 3.0 0.00 0.00 0.00 89 1018.2
20260509032704 43 55 1.0 3.0 0.00 0.00 0.00 89 1018.4
20260509032204 43 55 0.0 2.0 0.00 0.00 0.00 88 1018.4
20260509031701 43 55 0.0 0.0 0.00 0.00 0.00 88 1018.4
20260509031203 43 55 0.0 0.0 0.00 0.00 0.00 87 1018.4
20260509030700 43 55 0.0 0.0 0.00 0.00 0.00 86 1018.4
20260509030155 43 55 0.0 0.0 0.00 0.00 0.00 86 1018.4
20260509025654 44 55 0.0 0.0 0.00 0.00 0.00 86 1018.4
20260509025152 44 55 0.0 0.0 0.00 0.00 0.00 86 1018.4
20260509024650 44 55 0.0 0.0 0.00 0.00 0.00 85 1018.4
20260509024154 44 55 0.0 0.0 0.00 0.00 0.00 85 1018.4
20260509023647 44 55 0.0 0.0 0.00 0.00 0.00 85 1018.4
20260509023146 45 55 0.0 0.0 0.00 0.00 0.00 85 1018.4
20260509022644 45 55 0.0 0.0 0.00 0.00 0.00 85 1018.5
20260509022144 45 55 0.0 0.0 0.00 0.00 0.00 85 1018.4
20260509021639 45 55 0.0 0.0 0.00 0.00 0.00 85 1018.5
20260509021139 46 55 0.0 0.0 0.00 0.00 0.00 85 1018.5
20260509020636 46 55 0.0 2.0 0.00 0.00 0.00 84 1018.4
20260509020134 46 55 0.0 2.0 0.00 0.00 0.00 84 1018.4
20260509015631 46 55 0.0 2.0 0.00 0.00 0.00 84 1018.4
20260509015132 46 55 1.0 3.0 0.00 0.00 0.00 85 1018.4
20260509014627 47 55 1.0 3.0 0.00 0.00 0.00 84 1018.5
20260509014124 47 69 1.0 2.0 0.00 0.00 0.00 85 1018.4
20260509013623 47 80 0.0 2.0 0.00 0.00 0.00 84 1018.4
20260509013124 47 80 1.0 2.0 0.00 0.00 0.00 84 1018.4
20260509012623 47 80 1.0 2.0 0.00 0.00 0.00 84 1018.4
20260509012123 47 101 1.0 3.0 0.00 0.00 0.00 84 1018.4
20260509011624 48 76 1.0 5.0 0.00 0.00 0.00 83 1018.4
20260509011117 48 106 2.0 5.0 0.00 0.00 0.00 83 1018.2
20260509010611 48 57 2.0 5.0 0.00 0.00 0.00 83 1018.4
20260509010113 48 44 2.0 5.0 0.00 0.00 0.00 83 1018.4
20260509005611 48 50 2.0 4.0 0.00 0.00 0.00 83 1018.4
20260509005111 48 77 2.0 7.0 0.00 0.00 0.00 82 1018.4
20260509004613 48 63 2.0 7.0 0.00 0.00 0.00 83 1018.4
20260509004109 48 84 2.0 5.0 0.00 0.00 0.00 82 1018.4
20260509003610 49 59 2.0 5.0 0.00 0.00 0.00 82 1018.5
20260509003108 49 58 2.0 5.0 0.00 0.00 0.00 81 1018.5
20260509002608 49 67 3.0 6.0 0.00 0.00 0.00 81 1018.5
20260509002106 49 77 3.0 6.0 0.00 0.00 0.00 80 1018.5
20260509001604 49 32 2.0 5.0 0.00 0.00 0.00 80 1018.5
20260509001103 49 33 2.0 7.0 0.00 0.00 0.00 79 1018.5
20260509000603 50 51 3.0 7.0 0.00 0.00 0.00 79 1018.5
20260509000109 50 41 3.0 6.0 0.00 0.00 0.00 79 1018.5
20260508235603 50 57 3.0 7.0 0.00 0.00 0.00 79 1018.6
20260508235105 50 59 3.0 7.0 0.00 0.00 0.00 78 1018.6
20260508234604 50 58 3.0 7.0 0.00 0.00 0.00 78 1018.6
20260508234104 50 64 3.0 7.0 0.00 0.00 0.00 78 1018.6
20260508233559 51 74 3.0 8.0 0.00 0.00 0.00 77 1018.6
20260508233059 51 47 3.0 8.0 0.00 0.00 0.00 77 1018.6
20260508232601 51 101 3.0 10.0 0.00 0.00 0.00 76 1018.6
20260508232059 51 40 3.0 10.0 0.00 0.00 0.00 76 1018.6
20260508231558 51 80 3.0 8.0 0.00 0.00 0.00 76 1018.7
20260508231105 51 41 3.0 8.0 0.00 0.00 0.00 76 1018.7
20260508230557 51 59 3.0 10.0 0.00 0.00 0.00 75 1018.6
20260508225557 52 53 3.0 7.0 0.00 0.00 0.00 75 1018.6
20260508225057 52 342 3.0 7.0 0.00 0.00 0.00 75 1018.7
20260508224557 52 92 3.0 7.0 0.00 0.00 0.00 75 1018.7
20260508224055 52 53 3.0 7.0 0.00 0.00 0.00 74 1018.7
20260508223555 52 44 3.0 7.0 0.00 0.00 0.00 74 1018.7
20260508223057 52 36 3.0 7.0 0.00 0.00 0.00 74 1018.6
20260508222553 52 54 3.0 7.0 0.00 0.00 0.00 74 1018.5
20260508222047 52 78 3.0 7.0 0.00 0.00 0.00 74 1018.7
20260508221536 52 46 3.0 7.0 0.00 0.00 0.00 74 1018.6
20260508221035 52 46 3.0 10.0 0.00 0.00 0.00 74 1018.7
20260508220533 52 50 3.0 10.0 0.00 0.00 0.00 74 1018.6
20260508220034 52 59 3.0 8.0 0.00 0.00 0.00 74 1018.6
20260508215532 52 17 3.0 8.0 0.00 0.00 0.00 74 1018.5
20260508215030 52 74 3.0 8.0 0.00 0.00 0.00 74 1018.5
20260508214531 52 50 4.0 8.0 0.00 0.00 0.00 74 1018.5
20260508214030 52 54 3.0 8.0 0.00 0.00 0.00 74 1018.5
20260508213530 52 61 4.0 12.0 0.00 0.00 0.00 74 1018.4
20260508213030 52 32 4.0 12.0 0.00 0.00 0.00 74 1018.4
20260508212531 52 55 4.0 10.0 0.00 0.00 0.00 74 1018.4
20260508212030 52 18 3.0 10.0 0.00 0.00 0.00 74 1018.2
20260508211533 52 21 4.0 9.0 0.00 0.00 0.00 74 1018.4
20260508211024 52 19 4.0 8.0 0.00 0.00 0.00 74 1018.2
20260508210517 52 26 4.0 7.0 0.00 0.00 0.00 74 1018.2
20260508210017 52 32 3.0 7.0 0.00 0.00 0.00 73 1018.2
20260508205517 52 31 4.0 8.0 0.00 0.00 0.00 73 1018.2
20260508205015 52 52 3.0 8.0 0.00 0.00 0.00 73 1018.1
20260508204515 52 55 2.0 7.0 0.00 0.00 0.00 73 1018.1
20260508204013 52 67 2.0 5.0 0.00 0.00 0.00 72 1018.1
20260508203513 52 36 3.0 5.0 0.00 0.00 0.00 72 1018.0
20260508203012 52 57 3.0 6.0 0.00 0.00 0.00 72 1018.1
20260508202513 52 22 3.0 6.0 0.00 0.00 0.00 71 1018.0
20260508202012 52 43 3.0 5.0 0.00 0.00 0.00 71 1017.9
20260508201512 53 41 3.0 5.0 0.00 0.00 0.00 70 1017.9
20260508201012 53 28 2.0 5.0 0.00 0.00 0.00 69 1017.9
20260508200506 53 49 2.0 5.0 0.00 0.00 0.00 69 1017.9
20260508200004 53 63 1.0 4.0 0.00 0.00 0.00 70 1017.9
20260508195504 54 55 2.0 4.0 0.00 0.00 0.00 70 1017.9
20260508195006 54 57 2.0 5.0 0.00 0.00 0.00 69 1017.8
20260508194504 54 48 3.0 6.0 0.00 0.00 0.00 69 1017.8
20260508194006 54 38 3.0 7.0 0.00 0.00 0.00 67 1017.7
20260508193507 54 57 3.0 7.0 0.00 0.00 0.00 67 1017.6
20260508193004 55 61 3.0 5.0 0.00 0.00 0.00 67 1017.6
20260508192504 55 49 3.0 7.0 0.00 0.00 0.00 66 1017.6
20260508192005 55 24 3.0 8.0 0.00 0.00 0.00 66 1017.4
20260508191503 55 69 3.0 8.0 0.00 0.00 0.00 66 1017.4
20260508191002 56 46 3.0 8.0 0.00 0.00 0.00 65 1017.4
20260508190502 56 32 2.0 5.0 0.00 0.00 0.00 64 1017.4
20260508190006 56 42 3.0 5.0 0.00 0.00 0.00 64 1017.3
20260508185502 56 51 4.0 7.0 0.00 0.00 0.00 63 1017.3
20260508185002 57 38 4.0 9.0 0.00 0.00 0.00 62 1017.1
20260508184504 57 53 3.0 9.0 0.00 0.00 0.00 62 1017.0
20260508184001 57 44 3.0 7.0 0.00 0.00 0.00 61 1017.0
20260508183503 58 64 2.0 7.0 0.00 0.00 0.00 61 1017.0
20260508183004 58 62 2.0 7.0 0.00 0.00 0.00 61 1016.9
20260508182504 58 82 3.0 10.0 0.00 0.00 0.00 60 1016.8
20260508182001 58 66 3.0 10.0 0.00 0.00 0.00 59 1016.8
20260508181502 59 355 3.0 9.0 0.00 0.00 0.00 59 1016.7
20260508181003 59 65 3.0 9.0 0.00 0.00 0.00 57 1016.7
20260508180502 60 47 3.0 7.0 0.00 0.00 0.00 56 1016.5
20260508180002 60 55 3.0 8.0 0.00 0.00 0.00 56 1016.5
20260508175501 60 49 4.0 8.0 0.00 0.00 0.00 55 1016.3
20260508175002 61 54 3.0 9.0 0.00 0.00 0.00 54 1016.3
20260508174503 61 63 4.0 9.0 0.00 0.00 0.00 54 1016.3
20260508174003 61 57 4.0 11.0 0.00 0.00 0.00 54 1016.3
20260508173502 62 92 5.0 11.0 0.00 0.00 0.00 53 1016.2
20260508173002 62 30 5.0 10.0 0.00 0.00 0.00 52 1016.1
20260508172503 62 105 5.0 10.0 0.00 0.00 0.00 51 1016.1
20260508172004 63 55 5.0 10.0 0.00 0.00 0.00 51 1016.1
20260508171501 63 53 4.0 10.0 0.00 0.00 0.00 51 1016.1
20260508171002 63 88 6.0 13.0 0.00 0.00 0.00 50 1016.0
20260508170503 63 36 7.0 14.0 0.00 0.00 0.00 50 1016.0
20260508170005 64 65 6.0 14.0 0.00 0.00 0.00 50 1016.0
20260508165502 64 74 4.0 12.0 0.00 0.00 0.00 48 1016.0
20260508165010 64 25 4.0 7.0 0.00 0.00 0.00 47 1015.9
20260508164502 64 5 4.0 8.0 0.00 0.00 0.00 47 1015.9
20260508164002 64 5 3.0 8.0 0.00 0.00 0.00 47 1015.9
20260508163502 64 346 3.0 8.0 0.00 0.00 0.00 46 1015.8
20260508163003 64 39 3.0 8.0 0.00 0.00 0.00 48 1015.9
20260508162503 63 13 3.0 8.0 0.00 0.00 0.00 47 1015.9
20260508162002 63 23 2.0 6.0 0.00 0.00 0.00 48 1015.9
20260508161501 62 19 3.0 6.0 0.00 0.00 0.00 48 1015.9
20260508161002 62 26 4.0 6.0 0.00 0.00 0.00 50 1016.0
20260508160009 62 22 5.0 8.0 0.00 0.00 0.00 51 1016.0
20260508155505 62 9 3.0 8.0 0.00 0.00 0.00 50 1016.0
20260508155001 62 5 3.0 5.0 0.00 0.00 0.00 49 1016.0
20260508154504 62 9 4.0 8.0 0.00 0.00 0.00 49 1016.0
20260508154003 62 13 5.0 8.0 0.00 0.00 0.00 49 1016.0
20260508153502 63 13 5.0 9.0 0.00 0.00 0.00 49 1016.0
20260508152954 63 332 5.0 11.0 0.00 0.00 0.00 48 1016.0
20260508152455 64 344 6.0 11.0 0.00 0.00 0.00 48 1016.1
20260508151955 64 0 6.0 11.0 0.00 0.00 0.00 46 1016.0
20260508151456 65 16 6.0 14.0 0.00 0.00 0.00 45 1016.1
20260508150955 65 351 5.0 14.0 0.00 0.00 0.00 46 1016.1
20260508150456 64 18 3.0 7.0 0.00 0.00 0.00 48 1016.1
20260508145954 63 53 5.0 12.0 0.00 0.00 0.00 49 1016.1
20260508145453 63 38 6.0 12.0 0.00 0.00 0.00 47 1016.2
20260508144956 63 28 6.0 11.0 0.00 0.00 0.00 48 1016.3
20260508144451 64 24 6.0 9.0 0.00 0.00 0.00 48 1016.3
20260508143949 64 41 8.0 15.0 0.00 0.00 0.00 46 1016.3
20260508143447 64 0 6.0 15.0 0.00 0.00 0.00 48 1016.5
20260508142948 65 350 3.0 9.0 0.00 0.00 0.00 46 1016.3
20260508142448 65 82 4.0 9.0 0.00 0.00 0.00 46 1016.5
20260508141944 65 41 3.0 9.0 0.00 0.00 0.00 46 1016.5
20260508141444 65 0 3.0 9.0 0.00 0.00 0.00 47 1016.5
20260508140944 64 87 4.0 10.0 0.00 0.00 0.00 49 1016.5
20260508140442 63 330 5.0 10.0 0.00 0.00 0.00 48 1016.6
20260508135942 62 310 5.0 9.0 0.00 0.00 0.00 50 1016.7
20260508135440 62 343 5.0 8.0 0.00 0.00 0.00 50 1016.7
20260508134941 62 331 4.0 8.0 0.00 0.00 0.00 49 1016.7
20260508134443 62 331 4.0 7.0 0.00 0.00 0.00 50 1016.7
20260508133938 62 343 5.0 10.0 0.00 0.00 0.00 48 1016.7
20260508133437 62 331 4.0 10.0 0.00 0.00 0.00 49 1016.7
20260508132938 63 294 4.0 8.0 0.00 0.00 0.00 48 1016.7
20260508132436 63 296 6.0 9.0 0.00 0.00 0.00 49 1016.7
20260508131935 64 344 7.0 11.0 0.00 0.00 0.00 46 1016.7
20260508131438 64 328 6.0 11.0 0.00 0.00 0.00 46 1016.8
20260508130935 65 341 8.0 13.0 0.00 0.00 0.00 44 1016.8
20260508130434 65 332 7.0 13.0 0.00 0.00 0.00 46 1016.7
20260508125934 65 325 5.0 12.0 0.00 0.00 0.00 46 1016.8
20260508125434 66 323 6.0 11.0 0.00 0.00 0.00 44 1016.8
20260508124933 65 336 5.0 11.0 0.00 0.00 0.00 47 1016.8
20260508124430 65 274 5.0 10.0 0.00 0.00 0.00 47 1016.8
20260508123933 65 290 4.0 8.0 0.00 0.00 0.00 49 1016.8
20260508123426 65 204 4.0 10.0 0.00 0.00 0.00 46 1016.9
20260508122926 65 217 5.0 10.0 0.00 0.00 0.00 48 1016.9
20260508122427 65 350 5.0 10.0 0.00 0.00 0.00 44 1017.0
20260508121926 65 338 6.0 12.0 0.00 0.00 0.00 45 1017.0
20260508121426 65 286 6.0 12.0 0.00 0.00 0.00 47 1017.0
20260508120925 65 293 4.0 10.0 0.00 0.00 0.00 47 1016.9
20260508120424 65 303 3.0 7.0 0.00 0.00 0.00 46 1016.9
20260508115922 65 321 3.0 10.0 0.00 0.00 0.00 46 1016.9
20260508115422 65 279 4.0 10.0 0.00 0.00 0.00 49 1016.9
20260508114915 64 309 5.0 9.0 0.00 0.00 0.00 47 1016.9
20260508114417 64 244 5.0 9.0 0.00 0.00 0.00 49 1016.9
20260508113918 64 229 4.0 9.0 0.00 0.00 0.00 49 1016.9
20260508113414 63 229 5.0 9.0 0.00 0.00 0.00 52 1017.1
20260508112915 62 311 4.0 9.0 0.00 0.00 0.00 50 1017.1
20260508112414 62 238 3.0 9.0 0.00 0.00 0.00 50 1017.2
20260508111914 62 257 3.0 7.0 0.00 0.00 0.00 52 1017.2
20260508111413 62 332 5.0 10.0 0.00 0.00 0.00 49 1017.2
20260508110912 63 15 6.0 11.0 0.00 0.00 0.00 49 1017.3
20260508110410 64 339 5.0 11.0 0.00 0.00 0.00 49 1017.2
20260508105910 64 307 5.0 11.0 0.00 0.00 0.00 56 1017.2
20260508105409 63 219 5.0 11.0 0.00 0.00 0.00 54 1017.2
20260508104910 62 266 4.0 10.0 0.00 0.00 0.00 56 1017.3
20260508104410 61 279 2.0 7.0 0.00 0.00 0.00 55 1017.2
20260508103903 60 355 4.0 7.0 0.00 0.00 0.00 56 1017.2
20260508103357 60 290 5.0 10.0 0.00 0.00 0.00 56 1017.2
20260508102857 59 284 5.0 10.0 0.00 0.00 0.00 57 1017.2
20260508102350 60 269 4.0 9.0 0.00 0.00 0.00 57 1017.2
20260508101849 59 306 4.0 8.0 0.00 0.00 0.00 57 1017.2
20260508101346 59 314 6.0 10.0 0.00 0.00 0.00 58 1017.3
20260508100847 60 335 5.0 10.0 0.00 0.00 0.00 58 1017.3
20260508100343 59 252 5.0 10.0 0.00 0.00 0.00 61 1017.3
20260508095842 60 330 7.0 10.0 0.00 0.00 0.00 54 1017.4
20260508095344 61 312 5.0 10.0 0.00 0.00 0.00 55 1017.4
20260508094842 61 334 4.0 13.0 0.00 0.00 0.00 59 1017.4
20260508094343 60 259 4.0 13.0 0.00 0.00 0.00 62 1017.4
20260508093839 59 270 4.0 11.0 0.00 0.00 0.00 64 1017.4
20260508093339 58 306 3.0 11.0 0.00 0.00 0.00 61 1017.5
20260508092838 57 264 3.0 9.0 0.00 0.00 0.00 63 1017.6
20260508092338 57 279 5.0 10.0 0.00 0.00 0.00 61 1017.6
20260508091835 57 317 6.0 11.0 0.00 0.00 0.00 61 1017.6
20260508091336 57 317 5.0 11.0 0.00 0.00 0.00 61 1017.6
20260508090836 58 342 5.0 12.0 0.00 0.00 0.00 59 1017.6
20260508090337 58 313 5.0 12.0 0.00 0.00 0.00 61 1017.6
20260508085832 58 310 4.0 9.0 0.00 0.00 0.00 64 1017.6
20260508085333 58 313 4.0 8.0 0.00 0.00 0.00 66 1017.5
20260508084822 57 252 5.0 8.0 0.00 0.00 0.00 65 1017.6
20260508084316 56 242 4.0 8.0 0.00 0.00 0.00 67 1017.6
20260508083814 56 312 4.0 6.0 0.00 0.00 0.00 67 1017.6
20260508083314 56 238 4.0 8.0 0.00 0.00 0.00 66 1017.6
20260508082813 56 253 4.0 8.0 0.00 0.00 0.00 65 1017.5
20260508082310 56 259 3.0 6.0 0.00 0.00 0.00 70 1017.5
20260508081810 55 258 3.0 7.0 0.00 0.00 0.00 70 1017.5
20260508081310 55 282 4.0 7.0 0.00 0.00 0.00 72 1017.6
20260508080810 55 312 4.0 8.0 0.00 0.00 0.00 72 1017.6
20260508080309 55 326 4.0 8.0 0.00 0.00 0.00 71 1017.5
20260508075809 55 317 4.0 7.0 0.00 0.00 0.00 71 1017.5
20260508075310 55 329 3.0 7.0 0.00 0.00 0.00 72 1017.4
20260508074810 55 284 3.0 6.0 0.00 0.00 0.00 72 1017.4
20260508074310 54 298 3.0 6.0 0.00 0.00 0.00 74 1017.4
20260508073808 53 290 3.0 8.0 0.00 0.00 0.00 76 1017.4
20260508073305 53 300 3.0 8.0 0.00 0.00 0.00 76 1017.4
20260508072803 52 261 2.0 6.0 0.00 0.00 0.00 77 1017.3
20260508072301 52 300 2.0 5.0 0.00 0.00 0.00 79 1017.3
20260508071801 52 286 2.0 5.0 0.00 0.00 0.00 78 1017.4
20260508071306 51 305 3.0 5.0 0.00 0.00 0.00 80 1017.4
20260508070800 51 265 2.0 5.0 0.00 0.00 0.00 82 1017.4
20260508070301 51 286 3.0 6.0 0.00 0.00 0.00 83 1017.4
20260508065759 51 301 3.0 6.0 0.00 0.00 0.00 84 1017.4
20260508065300 50 291 2.0 5.0 0.00 0.00 0.00 86 1017.3